Wind_Speed
10 10 10 9 9 9 9 9 9 10 10 9 9 9 8 8 7 6 6 5 3 2 1 1 1 2 2 3 3 4 6 7 7 8 8 8 9 9 9 8 9 9 9
8 9 9 8 8 8 8 8 8 8 9 9 9 9 8 8 7 7 6 5 4 3 3 2 1 2 2 3 4 4 5 6 7 7 8 8 9 9 9 9 9 9 10
7 7 7 7 7 7 8 7 7 8 8 8 8 9 9 8 7 6 6 5 4 3 3 3 2 2 3 4 5 5 6 6 7 7 8 8 9 9 9 10 10 10 10
6 6 6 6 7 7 7 7 6 7 7 7 7 7 7 8 7 6 6 6 5 4 3 3 3 4 4 5 5 6 6 6 7 7 8 8 8 8 8 9 10 10 10
8 7 6 6 7 7 7 7 6 6 7 7 7 7 6 6 6 6 6 6 6 5 5 5 5 5 5 5 5 6 6 7 6 7 8 8 8 8 8 9 9 9 10
9 8 8 7 8 8 7 7 7 7 7 7 7 7 7 6 6 6 5 5 6 6 6 5 6 6 6 6 6 6 7 7 7 7 7 8 8 9 10 10 11 11 11
11 9 8 8 8 9 9 8 8 8 8 8 8 9 9 8 7 7 6 6 6 6 6 7 7 7 8 8 7 7 7 7 7 7 8 9 9 10 11 11 12 12 12
13 13 10 9 9 9 10 10 10 10 10 10 10 10 10 10 9 8 7 7 7 7 7 7 8 8 9 9 8 7 8 8 8 9 9 10 10 11 11 11 12 12 13
15 15 13 12 11 11 11 12 11 11 11 12 11 11 11 10 10 9 9 9 8 8 8 8 9 9 10 10 10 10 10 11 10 10 10 11 11 12 13 13 13 13 14
17 16 15 14 14 13 14 14 13 13 13 13 13 13 12 11 11 11 11 11 10 9 10 10 10 11 11 12 12 12 12 12 12 11 12 12 13 13 13 14 15 15 15
19 18 16 16 16 16 16 16 15 15 15 15 15 15 14 13 12 13 13 13 12 12 12 13 13 13 13 13 13 13 13 13 13 13 13 13 14 14 14 15 16 16 16
20 19 17 18 18 18 19 19 17 18 17 16 16 16 15 15 15 14 14 14 14 14 15 15 15 15 15 15 15 15 15 15 15 15 15 15 16 16 16 16 16 17 18
21 20 19 19 20 20 21 21 20 20 19 18 19 18 18 18 17 16 16 16 17 17 17 17 17 17 18 18 17 17 17 17 17 17 17 18 18 18 18 18 18 19 19
22 22 22 21 20 21 23 23 23 23 22 21 21 21 20 20 19 19 19 19 19 19 19 20 20 20 20 20 20 20 19 19 19 19 20 20 20 20 20 20 20 20 20
23 22 20 21 22 22 23 24 25 24 23 22 22 22 21 21 21 21 22 22 22 22 22 22 22 22 22 22 22 23 22 22 22 21 22 22 22 22 22 22 22 22 22
27 24 22 22 22 22 23 25 25 25 25 24 23 24 24 24 24 24 24 24 23 23 23 23 23 24 24 24 24 24 24 24 23 23 23 23 23 24 24 24 24 24 24
27 25 23 22 23 24 25 26 27 27 27 26 26 26 25 25 25 26 26 25 25 25 24 24 25 25 25 26 25 25 26 25 25 25 25 25 25 25 25 26 26 26 26
26 25 24 23 24 25 25 25 26 26 26 27 26 27 27 27 27 27 27 27 27 27 27 26 26 27 27 27 27 28 27 27 27 27 27 27 26 26 26 26 27 28 29
26 25 25 25 25 25 26 26 25 25 27 28 29 28 29 29 29 28 28 28 29 30 29 28 28 28 29 29 29 30 29 29 28 28 28 28 28 28 28 29 29 30 30
28 27 26 26 26 26 26 26 27 29 29 29 29 30 31 31 31 31 30 31 31 30 30 31 30 30 30 31 30 31 30 30 30 29 30 31 30 30 30 31 31 31 32
28 27 27 27 27 27 27 28 30 30 30 30 30 30 31 31 32 32 32 31 31 31 31 31 31 31 31 32 31 32 32 31 32 31 31 32 31 31 32 32 32 33 33
29 28 29 29 29 29 30 30 31 32 31 31 31 32 32 32 33 33 32 32 32 31 31 31 32 33 33 33 32 32 32 31 31 31 32 32 32 32 33 33 33 33 34
31 30 31 31 32 32 31 32 33 33 33 32 32 32 33 34 33 33 33 33 33 33 33 31 32 32 34 34 33 33 32 32 32 32 32 32 33 34 34 34 34 34 34
32 33 33 33 33 33 34 34 34 35 35 34 34 34 34 35 34 33 33 33 32 32 33 32 32 31 32 33 33 33 33 33 33 33 33 34 34 35 35 35 34 35 35
33 34 34 34 33 33 34 35 36 36 35 35 35 34 34 35 35 34 33 32 33 33 33 32 32 31 32 33 34 34 34 34 33 34 35 36 36 36 36 35 35 35 35
33 33 33 33 33 33 34 35 35 35 35 35 34 33 34 35 34 34 33 33 33 33 32 32 32 31 32 32 32 32 33 33 34 34 34 35 35 35 35 35 35 35 35
Wind_Direction
18 21 21 26 31 32 35 39 42 44 45 43 41 39 39 41 43 42 42 40 39 44 18 269 248 252 250 243 243 247 245 250 249 246 245 243 243 245 245 243 245 247 250
6 11 15 20 29 29 28 31 34 37 40 40 37 35 33 31 31 32 31 27 28 24 16 1 320 295 286 268 253 257 262 261 253 250 248 248 250 248 243 242 248 251 254
354 358 6 9 14 15 16 17 21 25 30 32 33 32 29 25 23 22 22 17 13 14 11 2 330 306 293 281 268 269 269 266 263 261 255 251 248 248 247 248 253 256 260
329 338 343 349 350 355 0 5 8 8 13 16 18 21 21 20 19 19 14 11 8 0 349 343 333 318 299 284 279 281 277 277 277 271 264 255 248 248 253 256 257 258 259
302 305 310 317 322 329 339 347 352 351 353 355 358 2 3 5 6 7 5 3 2 356 341 324 316 310 302 292 290 290 293 289 284 276 266 260 254 251 254 257 259 259 260
293 290 288 295 301 308 313 324 333 335 333 334 335 335 336 338 339 340 343 349 349 343 339 329 325 319 313 307 302 300 301 293 285 279 274 267 261 259 261 263 263 263 265
280 276 281 285 288 296 298 305 313 315 317 318 319 318 320 320 317 316 320 327 331 326 323 321 320 319 312 306 302 301 297 291 285 278 275 272 268 266 267 268 267 265 267
267 268 273 280 280 281 286 293 301 300 301 303 306 308 309 312 308 308 310 312 316 319 316 312 311 312 312 308 300 296 297 296 290 280 277 276 274 271 269 270 270 269 268
261 266 265 271 275 273 275 281 289 291 294 296 299 305 305 303 304 300 298 300 302 307 309 307 308 309 309 308 303 299 296 295 289 281 278 276 275 274 271 271 273 274 271
260 262 260 264 268 270 272 274 279 285 289 292 295 299 301 299 296 293 292 293 292 294 298 299 301 303 303 303 299 296 295 293 286 281 279 277 276 277 276 276 276 276 274
267 262 260 261 261 264 269 267 275 280 284 287 288 289 293 294 294 290 291 292 289 291 293 295 296 297 298 297 296 293 291 289 285 281 278 275 275 277 280 279 278 277 275
270 268 263 260 261 263 266 269 275 277 281 284 285 284 285 288 292 291 290 291 289 290 289 290 292 292 294 294 292 287 284 284 283 280 278 276 275 277 280 281 280 278 278
271 269 267 264 265 266 266 269 274 275 277 280 282 284 283 284 286 288 289 290 289 288 287 286 288 289 289 289 287 284 283 281 279 278 278 278 278 277 278 281 281 280 280
274 275 272 269 268 268 267 268 271 271 273 277 277 279 281 281 281 282 284 285 286 287 285 285 285 285 286 285 284 281 281 280 278 277 277 277 276 276 276 278 280 279 278
274 276 275 273 271 269 269 269 271 270 270 274 275 276 277 278 279 281 282 283 284 284 283 282 284 283 284 284 284 282 282 280 278 277 275 275 274 274 275 275 276 276 278
279 281 279 277 271 268 268 269 268 269 270 270 270 272 273 274 276 279 280 282 283 283 282 281 283 284 284 284 284 283 283 279 278 277 276 275 275 275 274 274 274 274 276
279 279 277 275 273 273 272 268 268 269 268 270 270 271 272 273 275 277 278 279 280 281 282 281 281 282 282 283 284 284 284 281 278 277 276 275 275 275 275 274 275 276 277
273 273 272 272 273 274 273 270 268 266 267 269 272 274 274 273 275 277 278 279 279 278 279 282 280 279 279 280 282 282 281 280 278 277 276 276 274 275 276 277 278 278 278
273 269 268 268 270 272 273 272 269 269 271 272 272 274 275 277 277 278 277 277 279 278 277 278 278 278 278 278 280 281 281 279 277 277 277 277 275 275 276 277 279 279 280
273 271 267 266 266 269 270 270 270 271 271 271 274 276 276 277 279 280 278 278 279 279 278 276 276 276 276 277 279 281 280 280 278 276 276 277 277 276 277 278 279 279 280
272 270 269 269 268 269 270 271 271 272 272 271 274 276 277 278 278 279 280 281 281 281 281 277 274 273 274 275 277 278 278 278 278 277 277 277 277 277 278 278 279 280 279
271 273 272 272 272 271 271 272 273 273 274 274 274 276 278 279 279 280 280 281 280 279 279 278 275 273 273 273 275 276 277 278 278 277 278 276 276 276 277 279 280 280 281
271 272 274 274 273 272 273 274 275 276 276 277 276 277 279 279 281 282 281 280 280 280 279 279 277 274 272 272 274 275 276 277 277 277 278 277 277 278 279 281 280 281 282
272 273 275 275 273 272 273 273 274 275 277 278 279 280 280 279 280 282 282 281 282 282 281 277 277 272 271 273 275 276 275 276 276 276 277 278 278 278 279 280 280 281 281
272 273 273 274 274 275 275 275 275 276 276 277 278 279 280 282 282 281 282 282 282 281 280 278 275 273 275 276 275 274 275 275 276 276 277 278 277 277 277 278 279 279 280
272 273 273 274 275 276 276 277 278 277 276 277 277 278 280 281 282 283 283 283 283 282 280 279 276 274 276 277 276 275 276 276 277 278 278 277 276 276 276 276 277 278 279
Height
5911 5910 5908 5907 5905 5904 5903 5901 5900 5899 5898 5896 5895 5894 5893 5891 5890 5889 5888 5888 5887 5887 5887 5887 5887 5887 5887 5886 5886 5886 5886 5886 5886 5886 5886 5886 5886 5886 5886 5886 5886 5886 5887
5911 5910 5908 5907 5906 5905 5904 5902 5901 5900 5899 5897 5896 5894 5893 5892 5891 5890 5889 5888 5887 5887 5886 5886 5886 5886 5886 5885 5885 5885 5884 5884 5884 5884 5884 5884 5885 5884 5885 5885 5884 5884 5884
5910 5909 5908 5907 5906 5905 5904 5903 5901 5900 5899 5898 5897 5895 5894 5892 5891 5890 5889 5888 5887 5886 5886 5885 5885 5885 5884 5884 5883 5883 5883 5883 5882 5882 5882 5882 5882 5882 5883 5883 5882 5882 5882
5908 5908 5907 5906 5905 5905 5904 5902 5901 5900 5899 5898 5897 5895 5894 5893 5891 5890 5889 5887 5886 5885 5885 5884 5884 5884 5883 5883 5882 5882 5881 5881 5880 5880 5880 5880 5880 5880 5880 5880 5880 5879 5879
5906 5906 5906 5905 5904 5903 5902 5901 5900 5899 5899 5898 5896 5895 5894 5892 5891 5889 5888 5887 5886 5885 5884 5883 5883 5882 5882 5881 5880 5880 5879 5879 5878 5878 5877 5877 5877 5878 5878 5878 5877 5877 5876
5903 5903 5904 5903 5902 5901 5901 5900 5899 5898 5897 5896 5895 5894 5893 5891 5890 5888 5887 5886 5885 5884 5883 5882 5881 5880 5880 5879 5879 5878 5877 5876 5876 5875 5875 5875 5875 5875 5875 5875 5874 5874 5873
5900 5900 5901 5901 5900 5899 5898 5898 5897 5896 5895 5894 5893 5892 5891 5889 5888 5887 5885 5884 5883 5882 5881 5881 5880 5879 5878 5877 5876 5875 5875 5874 5873 5873 5872 5872 5872 5871 5871 5871 5871 5870 5870
5897 5896 5896 5897 5897 5896 5896 5895 5894 5894 5893 5892 5891 5890 5888 5887 5886 5885 5884 5883 5882 5881 5880 5879 5878 5876 5875 5874 5873 5873 5872 5871 5870 5870 5869 5869 5868 5868 5867 5867 5867 5867 5866
5892 5892 5892 5892 5893 5892 5892 5892 5891 5891 5890 5889 5888 5887 5885 5884 5883 5882 5881 5880 5879 5878 5877 5876 5875 5874 5873 5871 5870 5870 5868 5868 5867 5866 5866 5865 5865 5864 5863 5863 5863 5863 5862
5887 5887 5887 5887 5887 5888 5888 5888 5887 5887 5886 5885 5885 5884 5882 5881 5880 5879 5878 5877 5876 5875 5874 5873 5872 5871 5869 5868 5867 5866 5865 5864 5863 5863 5862 5861 5861 5860 5859 5858 5858 5857 5857
5882 5881 5882 5882 5882 5882 5883 5882 5883 5882 5882 5881 5880 5879 5878 5877 5876 5875 5874 5873 5872 5871 5871 5869 5868 5867 5866 5865 5863 5862 5861 5860 5859 5858 5858 5857 5856 5855 5854 5854 5853 5852 5851
5876 5876 5876 5876 5876 5876 5876 5877 5877 5877 5876 5876 5875 5874 5874 5873 5872 5870 5870 5869 5869 5867 5866 5865 5864 5863 5862 5860 5859 5858 5856 5855 5854 5853 5853 5852 5851 5850 5849 5849 5848 5847 5846
5870 5870 5869 5870 5870 5869 5870 5870 5871 5871 5871 5870 5869 5869 5868 5868 5867 5866 5865 5864 5864 5863 5861 5860 5859 5858 5856 5855 5854 5852 5851 5850 5849 5848 5847 5846 5845 5845 5844 5843 5842 5841 5840
5863 5863 5863 5863 5863 5863 5863 5864 5864 5865 5865 5864 5864 5863 5863 5862 5862 5861 5860 5859 5857 5856 5855 5854 5853 5852 5850 5849 5848 5846 5845 5844 5843 5842 5841 5840 5839 5838 5837 5836 5836 5835 5834
5856 5856 5856 5856 5856 5857 5857 5857 5858 5857 5858 5858 5858 5857 5857 5856 5855 5854 5853 5852 5851 5850 5848 5847 5846 5845 5844 5842 5841 5840 5839 5837 5836 5835 5833 5833 5832 5831 5830 5829 5829 5828 5827
5849 5849 5849 5849 5849 5850 5850 5850 5850 5851 5850 5851 5851 5850 5850 5849 5848 5847 5846 5844 5843 5842 5841 5840 5839 5838 5837 5836 5834 5833 5832 5830 5829 5827 5826 5825 5824 5824 5823 5822 5821 5821 5820
5843 5843 5842 5842 5843 5843 5843 5843 5843 5843 5843 5843 5843 5842 5842 5841 5840 5839 5838 5837 5836 5835 5834 5833 5832 5830 5829 5828 5827 5825 5824 5822 5821 5820 5818 5817 5816 5815 5815 5814 5813 5813 5812
5836 5836 5836 5836 5836 5836 5836 5835 5835 5835 5835 5835 5835 5834 5834 5833 5831 5830 5829 5829 5828 5827 5826 5825 5823 5822 5821 5820 5819 5817 5815 5814 5813 5812 5810 5809 5808 5807 5806 5806 5805 5804 5803
5828 5828 5829 5829 5828 5828 5828 5828 5828 5828 5828 5827 5827 5827 5826 5825 5823 5821 5820 5819 5819 5818 5817 5816 5814 5813 5813 5811 5810 5808 5807 5805 5804 5803 5802 5800 5800 5799 5798 5797 5796 5795 5794
5821 5820 5820 5820 5820 5820 5820 5819 5820 5819 5819 5819 5819 5818 5817 5816 5815 5814 5812 5811 5809 5808 5807 5805 5804 5804 5803 5802 5800 5799 5797 5796 5795 5793 5793 5792 5791 5790 5788 5787 5786 5785 5784
5812 5811 5811 5812 5812 5812 5812 5812 5812 5811 5810 5810 5810 5809 5809 5807 5806 5805 5803 5801 5800 5799 5797 5795 5795 5794 5793 5792 5791 5789 5788 5786 5785 5784 5783 5782 5781 5780 5779 5778 5776 5775 5774
5804 5804 5804 5804 5804 5804 5804 5804 5803 5803 5802 5800 5800 5800 5799 5798 5797 5795 5793 5791 5790 5788 5787 5786 5785 5784 5783 5782 5781 5779 5778 5777 5776 5775 5774 5772 5771 5770 5769 5768 5766 5765 5763
5797 5796 5796 5796 5796 5796 5796 5795 5794 5793 5793 5791 5791 5790 5789 5788 5787 5785 5783 5782 5780 5778 5776 5775 5774 5773 5772 5771 5770 5769 5768 5767 5766 5764 5763 5762 5761 5760 5759 5757 5755 5754 5752
5787 5787 5787 5787 5786 5785 5786 5785 5784 5783 5783 5782 5782 5781 5779 5778 5776 5775 5773 5771 5769 5766 5765 5764 5763 5761 5761 5760 5759 5758 5757 5756 5755 5754 5752 5751 5750 5749 5748 5746 5745 5743 5742
5778 5778 5777 5777 5777 5776 5775 5775 5774 5773 5772 5772 5771 5770 5769 5767 5765 5764 5763 5761 5759 5757 5755 5754 5752 5751 5751 5749 5748 5747 5746 5745 5744 5742 5741 5740 5739 5738 5737 5735 5734 5733 5731
5769 5768 5767 5767 5766 5766 5765 5765 5764 5763 5762 5761 5760 5760 5759 5758 5756 5754 5753 5751 5749 5747 5745 5744 5742 5741 5741 5739 5737 5736 5735 5734 5732 5731 5730 5729 5727 5726 5725 5724 5723 5722 5720